Regional Weather Roundup
Issued by NWS

Home | Current Version | Previous Version | Text Only | Print | Product List | Glossary On
Versions: 1 2 3 4 5 6 7 8 9 10 11 12 13 14 15 16 17 18 19 20 21 22 23 24 25 26 27 28 29 30 31 32 33 34 35 36 37 38 39 40 41 42 43 44 45 46 47 48 49 50
982
ASUS43 KMKX 301911
RWRWI

WISCONSIN REGIONAL WEATHER ROUNDUP
NATIONAL WEATHER SERVICE MILWAUKEE/SULLIVAN WI
200 PM CDT SAT APR 30 2016

NOTE: "FAIR" INDICATES FEW OR NO CLOUDS BELOW 12,000 FEET WITH NO
SIGNIFICANT WEATHER AND/OR OBSTRUCTIONS TO VISIBILITY.

WIZ001-002-006>008-014>016-023>028-302000-
NORTHWEST WISCONSIN

CITY           SKY/WX    TMP DP  RH WIND       PRES   REMARKS
SUPERIOR ARPT  SUNNY     45  36  70 NE15G24   30.24S
ASHLAND        SUNNY     48  34  58 NE24G36   30.25S
HAYWARD        MOSUNNY   55  32  41 N22G31    30.14F
SIREN          MOSUNNY   57  32  38 NE18G29   30.12S
CUMBERLAND     CLOUDY    55  32  41 NE12G21   30.10S
RICE LAKE      CLOUDY    59  29  32 E13G21    30.10F
CHETEK         CLOUDY    57  34  41 E13G20    30.10S
LADYSMITH      PTSUNNY   58  33  37 NE13G24   30.12R
EAU CLAIRE     CLOUDY    58  32  37 E18G29    30.06S
MENOMONIE      CLOUDY    58  33  39 E22       30.07S
NEW RICHMOND   CLOUDY    57  32  39 E14G21    30.07F
OSCEOLA        CLOUDY    58  33  40 NE18      30.11S
$$

WIZ003>005-009-010-017-018-302000-
NORTH CENTRAL WISCONSIN

CITY           SKY/WX    TMP DP  RH WIND       PRES   REMARKS
MANITOWISH WTR CLOUDY    53  31  44 NE13G18   30.14S
ARBOR VITAE    CLOUDY    57  33  40 NE9       30.13R
WOODRUFF       CLOUDY    57  33  40 NE9       30.13R
RHINELANDER    CLOUDY    56  31  38 E13       30.12F
EAGLE RIVER    CLOUDY    55  29  37 NE14      30.12F
LAND O LAKES   CLOUDY    52  32  45 NE13G21   30.15F
PHILLIPS       MOSUNNY   55  33  43 E9G22     30.11S
TOMAHAWK       CLOUDY    56  31  39 NE9G18    30.12R
MEDFORD        CLOUDY    56  34  43 E16       30.09R
MERRILL        CLOUDY    56  33  41 E15G21    30.11R
$$

WIZ029-030-035-036-043>047-302000-
CENTRAL WISCONSIN

CITY           SKY/WX    TMP DP  RH WIND       PRES   REMARKS
WAUSAU         CLOUDY    57  32  38 E14       30.08R
MOSINEE        SUNNY     52  32  46 E13G21    30.10F
MARSHFIELD     CLOUDY    54  32  43 E20G25    30.08R
STEVENS POINT  CLOUDY    51  32  48 E16       30.10R
WAUPACA        CLOUDY    54  37  54 NE10G17   30.10R
WAUTOMA        NOT AVBL
WISC RAPIDS    CLOUDY    53  33  46 E10G23    30.09R
CAMP DOUGLAS   CLOUDY    52  42  70 E17G26    30.04F
$$

WIZ011>013-019>022-031-037>040-048>050-302000-
NORTHEAST WISCONSIN

CITY           SKY/WX    TMP DP  RH WIND       PRES   REMARKS
ANTIGO         CLOUDY    53  33  46 E16       30.11R
SHAWANO        CLOUDY    55  31  39 E17       30.12S
OCONTO         CLOUDY    52  32  45 E10G20    30.13S
STURGEON BAY   CLOUDY    50  34  53 E10       30.16S
GREEN BAY      CLOUDY    51  36  56 NE16      30.11F
MANITOWOC      CLOUDY    49  37  63 MISG      30.11F
APPLETON       CLOUDY    52  34  50 E16       30.08F
CLINTONVILLE   CLOUDY    54  30  40 E13G18    30.11R
OSHKOSH        CLOUDY    52  36  54 NE12      30.07F
$$

WIZ032>034-041-042-053>061-302000-
SOUTHWEST WISCONSIN

CITY           SKY/WX    TMP DP  RH WIND       PRES   REMARKS
LA CROSSE      CLOUDY    52  36  54 E10       30.01F
SPARTA         CLOUDY    53  38  56 E17G28    30.03F
VIROQUA        CLOUDY    46  42  86 E17G25    29.99F
BOSCOBEL       LGT RAIN  49  45  86 NE10      29.97F FOG
PRAIRIE DU CHI LGT RAIN  47  42  83 NE16G30   29.94F
PLATTEVILLE    CLOUDY    47  45  93 NE21G30   29.92F
$$

WIZ056-057-062-063-064-067-068-302000-
SOUTH CENTRAL WISCONSIN

CITY           SKY/WX    TMP DP  RH WIND       PRES   REMARKS
REEDSBURG      LGT RAIN  47  43  85 E6        30.03F
BARABOO/DELLS  LGT RAIN  47  40  78 E10G16    30.04S
LONE ROCK      LGT RAIN  48  44  86 E16       30.00F FOG
MINERAL POINT  LGT RAIN  46  45  93 NE18G28   29.94F
MADISON        LGT RAIN  48  42  80 E12       30.03R
MIDDLETON      CLOUDY    48  42  81 E10G17    30.02F
WATERTOWN      LGT RAIN  46  39  77 E9        30.04R
MONROE         LGT RAIN  45  43  93 NE15G22   29.95F
JANESVILLE     LGT RAIN  46  45  93 NE18G24   29.98S
$$

WIZ051-052-058>065-066-070>072-302000-
SOUTHEAST WISCONSIN

CITY           SKY/WX    TMP DP  RH WIND       PRES   REMARKS
MILWAUKEE      LGT RAIN  45  38  76 E16       30.05S
WAUKESHA       RAIN      45  37  76 E15G21    30.04F
MILWAUKEE/TIMM CLOUDY    46  34  61 E12G17    30.06F
RACINE         LGT RAIN  44  38  79 NE14      30.05S
BURLINGTON     LGT RAIN  44  41  89 E15G22    30.00F
KENOSHA        RAIN      44  40  85 E18       30.01F FOG
FOND DU LAC    CLOUDY    52  34  50 E16G22    30.07S
SHEBOYGAN      CLOUDY    47  37  68 NE15      30.08F
WEST BEND      CLOUDY    48  34  57 E10       30.06S
JUNEAU         LGT RAIN  48  34  58 E16G24    30.06R
$$

LSZ147-162-302000-
LAKE SUPERIOR

STATION/POSITION TIME  TEMP    WIND        PRES    WAVE
                       AIR SEA DIR/SP/G            HT/PER
                 (UTC) (F)     (DEG/KT/KT) (MB)    (FT/S)
W MID LAKE BUOY  1850   38 37   50/ 12/ 14 1026.0F   2/ 4
DEVILS ISLAND    1900   39      80/ 23/ 26 1025.0F
SAXON HARBOR     1800   40      50/ 21     1023.4F
$$

LMZ867-665-643>646-302000-
LAKE MICHIGAN

STATION/POSITION TIME  TEMP    WIND        PRES    WAVE
                       AIR SEA DIR/SP/G            HT/PER
                 (UTC) (F)     (DEG/KT/KT) (MB)    (FT/S)
CHAMBERS ISLAND  1800   44      20/ 12/ 14 1021.0F
N MID LAKE BUOY  1850   41 39   40/ 10/ 10 1020.9F   1/ 3
NORTHPORT PIER   1800   44      70/ 10/ 13 1021.3F
ALGOMA LAKESHORE 1830           60/ 15/ 19   N/A
KEWAUNEE LAKESHO 1800   42      30/ 14/ 17 1019.8F
SHEBOYGAN LAKESH 1900   41      20/ 16/ 17 1019.4F
PORT WASHINGTON  1800   45      40/ 13/ 15 1019.0
S MID LAKE BUOY  1850   43 40   80/ 12/ 14 1016.9F   1/ 3
KENOSHA   LAKESH 1900   43      60/ 19/ 22 1015.9F
$$

TC  - TEMPERATURE IN CELSIUS
VSB - VISIBILITY IN STATUTE MILES
WCI - WIND CHILL INDEX
HX  - HEAT INDEX





USA.gov is the U.S. government's official web portal to all federal, state and local government web resources and services.